Weather History for Caribou, ME

Change the Weather History Date:

Tuesday, November 13, 2012

  Actual Average Record
Temperature  
Mean Temperature 46 °F 33 °F  
Max Temperature 61 °F 39 °F 61 °F (2012)
Min Temperature 30 °F 26 °F 6 °F (1949)
Degree Days  
Heating Degree Days 19 32  
Month to date heating degree days 370 389  
Since 1 July heating degree days 1199 1529  
Cooling Degree Days 0 0  
Month to date cooling degree days 0 0  
Year to date cooling degree days 279 180  
Moisture  
Dew Point 42 °F    
Average Humidity 84    
Maximum Humidity 93    
Minimum Humidity 75    
Precipitation  
Precipitation 0.15 in 0.11 in 1.67 in (1982)
Month to date precipitation 0.59 1.57  
Year to date precipitation 35.46 33.16  
Snow  
Snow 0.00 in 0.30 in 9.20 in (1963)
Month to date snowfall 1.1 3.0  
Since 1 July snowfall 1.1 4.7  
Since 1 September snowfall 1.1 4.7  
Snow Depth 0.00 in    
Sea Level Pressure  
Sea Level Pressure 30.15 in    
Wind  
Wind Speed 10 mph (SW)    
Max Wind Speed 24 mph    
Max Gust Speed 38 mph    
Visibility 9 miles    
Events Rain    
T = Trace of Precipitation, MM = Missing Value Source: NWS Daily Summary

Daily Weather History Graph

Daily Weather History Graph

Search for Another Location

Airport:

Trip Planner

Search our weather history database for the weather conditions in past years. The results will help you decide how hot, cold, wet, or windy it might be!

Date:

Astronomy

Nov. 13, 2012 Rise Set
Actual Time 6:32 AM EST 3:59 PM EST
Civil Twilight 5:59 AM EST 4:32 PM EST
Nautical Twilight 5:23 AM EST 5:09 PM EST
Astronomical Twilight 4:47 AM EST 5:44 PM EST
Moon 6:07 AM EST (11/13) 3:47 PM EST (11/13)
Length of Visible Light 10h 32m
Length of Day
9h 26m
Waning Crescent, 0% of the Moon is Illuminated
Nov 13
Waning Crescent
Nov 13
New
Nov 20
First Quarter
Nov 28
Full
Dec 6
Last Quarter

Hourly Weather History & Observations

Time (EST) Temp. Windchill Dew Point Humidity Pressure Visibility Wind Dir Wind Speed Gust Speed Precip Events Conditions
12:24 AM 57.2 °F - 50.0 °F 77% 30.10 in 10.0 mi South 19.6 mph 33.4 mph N/A   Overcast
12:54 AM 57.0 °F - 51.1 °F 81% 30.11 in 10.0 mi SSW 15.0 mph 27.6 mph N/A   Overcast
1:54 AM 57.9 °F - 51.1 °F 78% 30.07 in 10.0 mi South 18.4 mph 31.1 mph N/A   Mostly Cloudy
2:54 AM 57.0 °F - 50.0 °F 77% 30.05 in 10.0 mi South 20.7 mph 32.2 mph N/A   Mostly Cloudy
3:03 AM 57.2 °F - 50.0 °F 77% 30.03 in 10.0 mi South 18.4 mph 29.9 mph N/A   Scattered Clouds
3:54 AM 57.9 °F - 51.1 °F 78% 30.03 in 10.0 mi South 17.3 mph 27.6 mph N/A   Mostly Cloudy
4:54 AM 59.0 °F - 52.0 °F 78% 30.00 in 10.0 mi South 21.9 mph 34.5 mph N/A   Overcast
5:54 AM 60.1 °F - 53.1 °F 78% 29.98 in 10.0 mi SSW 24.2 mph 38.0 mph N/A   Overcast
6:54 AM 61.0 °F - 53.1 °F 75% 29.99 in 10.0 mi South 17.3 mph 27.6 mph N/A   Overcast
7:25 AM 53.6 °F - 48.2 °F 82% 30.02 in 10.0 mi WNW 13.8 mph 31.1 mph 0.02 in Rain Light Rain
7:43 AM 51.8 °F - 46.4 °F 82% 30.03 in 10.0 mi West 12.7 mph 24.2 mph 0.02 in Rain Light Rain
7:54 AM 50.0 °F - 46.0 °F 86% 30.05 in 10.0 mi West 10.4 mph - 0.02 in Rain Light Rain
8:54 AM 48.9 °F - 46.0 °F 90% 30.08 in 9.0 mi Variable 5.8 mph - 0.01 in Rain Light Rain
9:54 AM 48.0 °F - 44.1 °F 86% 30.10 in 7.0 mi WSW 12.7 mph 20.7 mph 0.00 in Rain Light Rain
10:54 AM 46.9 °F - 44.1 °F 90% 30.09 in 5.0 mi WSW 4.6 mph - 0.00 in Rain Rain
11:54 AM 45.0 °F 38.9 °F 42.1 °F 90% 30.10 in 8.0 mi WSW 12.7 mph 17.3 mph 0.02 in Rain Light Rain
12:54 PM 42.1 °F 38.4 °F 37.9 °F 85% 30.12 in 9.0 mi West 5.8 mph - 0.03 in Rain Light Rain
1:54 PM 39.9 °F 35.1 °F 37.0 °F 89% 30.14 in 6.0 mi WSW 6.9 mph - 0.05 in Rain Light Rain
2:54 PM 39.0 °F 32.8 °F 37.0 °F 93% 30.17 in 10.0 mi WSW 9.2 mph - 0.02 in   Overcast
3:54 PM 39.0 °F 33.4 °F 36.0 °F 89% 30.20 in 7.0 mi WSW 8.1 mph - 0.00 in Rain Light Rain
4:54 PM 37.0 °F 30.4 °F 34.0 °F 89% 30.23 in 10.0 mi WSW 9.2 mph - 0.00 in   Clear
5:54 PM 37.0 °F 32.4 °F 33.1 °F 86% 30.25 in 10.0 mi West 5.8 mph - N/A   Clear
6:54 PM 35.1 °F 27.9 °F 32.0 °F 89% 30.28 in 10.0 mi WSW 9.2 mph - N/A   Clear
7:54 PM 34.0 °F 29.8 °F 30.0 °F 85% 30.31 in 10.0 mi West 4.6 mph - N/A   Scattered Clouds
8:54 PM 33.1 °F 27.7 °F 30.9 °F 92% 30.35 in 10.0 mi NW 5.8 mph - N/A   Overcast
9:54 PM 33.1 °F - 30.9 °F 92% 30.38 in 10.0 mi Calm Calm - N/A   Mostly Cloudy
10:54 PM 33.1 °F 30.0 °F 30.0 °F 89% 30.39 in 10.0 mi WNW 3.5 mph - N/A   Clear
11:54 PM 32.0 °F - 28.9 °F 88% 30.42 in 10.0 mi Calm Calm - N/A   Clear